STARLINK-6285, 56405

Orbit data source: Space-Track

STARLINK-6285, 56405 is a payload satellite owned by SpaceX/Seattle (US) in LEO that was launched on Thu, 04 May 2023 UTC via an FALCON 9 launch vehicle from the Air Force Eastern Test Range (AFETR). Payload-class satellites include a variety of spacecraft equipped with specific instruments for various scientific and technological missions. These include communications satellites like Starlink; space stations such as the ISS; scientific satellites like the Hubble; Earth observation satellites from companies like Planet Labs, Umbra, and HawkEye 360; GPS; miniature CubeSats for education and research; and military/defense satellites.

Loading next visibility...
Identifier
56405, 2023-061AH
Orbit
LEO
Country
Flag of USUS
Related business
Manufacturer
SpaceX/Seattle
Mission
Operational Commercial Communications
Bus & Motor
STARLINK, Unknown motor
Mass
305 kg wet, ~290 kg dry
Launch date (UTC)
2023-05-04 (3 years ago)
Launch vehicle
FALCON 9
Launch site
Air Force Eastern Test Range (AFETR)
Object type
Payload
Rocket body
Debris
Shape & HBR
Box + 1 Pan, 10.1 m
Radar Cross Section
11.087 m², Large (>1 m²)

Expand to show TLE details & history
Last TLE update: 2 days ago

TLE from 2 days ago
0 STARLINK-6285
1 56405U 23061AH  26171.14038929  .00006365  00000-0  24084-3 0  9996
2 56405  43.0090 328.4057 0002829 249.7151 110.3397 15.27549991172542
Epoch: 2026-06-20T03:22Z
TLE epoch observation values (Epoch: 2026-06-20T03:22:09.634Z)
Latitude
-0.00001°
Longitude
9.50626°
Altitude
483.59 km
Speed
7.625 km/s
True Right ascension
21h 53m 37s
True Declination
0° 00' 00"
Sunlit
Object was in full shadow at epoch
Visualization orbit readout
Latitude
Unknown
Longitude
Unknown
Altitude
Unknown
Speed
Unknown
Apparent Right ascension
Unknown
Apparent Declination
Unknown
Sunlit
N/A
Visualization observer readout
Local Sidereal Time
21:39:54
Azimuth
Unknown
Elevation
Unknown
Doppler factor
Unknown
Orbital elements
Apogee altitude
487.024 km
Perigee altitude
483.141 km
Semi-major axis
6,863.22 km
Eccentricity
0.00028
Inclination
43.009°
RAAN
328.4057°
Arg. of periapsis
249.7151°
True anomaly
110.37009°
Mean anomaly
110.3397°
Eccentric anomaly
110.3549°
Mean motion
3.81726 °/min
Orbital period
94.31 mins
BSTAR
0.00024084
Loading maneuver chart data...
Computing Atmospheric mass density...
Loading historical data...
Loading historical data...
Loading historical data...
Loading historical data...
Loading historical data...
Loading historical data...
Loading historical data...

Documentation

Showing up to 5 results
|